星链-3096 (STARLINK-3096 )

导读 | 豆包AI

STARLINK-3096是美国太空探索技术公司Starlink卫星互联网星座的一员,于2021年9月14日发射升空。该星属于低轨通信卫星,旨在为全球提供高速卫星互联网接入服务,目前已在轨运行近四年半,持续为地面用户提供网络信号覆盖,助力偏远地区网络连接,并支撑星座组网服务。

基本信息
目录编号:
49131
目录名称:
STARLINK-3096
国际标识:
2021-082B
轨道中心:
EARTH
卫星名称:
星链-3096
卫星全名:
星链-3096 (STARLINK-3096 )
卫星状态:
在轨 (已飞行1689 天)
发射日期:
2021-09-14 UTC
国别 :
美国 (US)
星等 :
--
轨道信息
数据来源 国际轨道数据
星历时间: 2026-05-01T00:00:03+0800
5小时前
查看轨道信息
半长轴: 6659.468km
偏心率: 0.0004766
轨道倾角: 69.996°
近地点辐角 265.774°
升交点赤经 109.019°
平近点角 126.474°
近地点: 278.157km
远地点: 284.505km
周期: 90.140分钟
每日圈数: 15.975096
详细信息
固有亮度:
5
最大亮度:
2.5
卫星平台:
Starlink v1.5
覆盖范围:
全球
运营商:
太空探索技术公司
运营商所在国:
美国
制造商(研发单位):
太空探索技术公司
制造商所在国:
美国
使用方式:
暂无
卫星简介
星链(Starlink)计划是由太空探索技术公司(SpaceX)提出的一个巨型低轨卫星互联网星座项目,计划在2019年至2024年间在太空搭建由约1.2万颗卫星组成的“星链”网络,其中1584颗将部署在地球上空550千米处的近地轨道,并从2020年开始工作。该卫星仍在工作。
2D轨道图
3D轨道图
轨道高度分析图
轨道倾角分析图
轨道综合分析图
查看轨道综合分析图